Visibility
15.0 15.0 15.0 15.0 15.0 15.0 15.0 15.0 15.0 15.0 15.0 15.0 15.0 15.0 15.0 15.0 15.0 15.0 15.0 15.0 15.0 15.0 15.0 15.0 15.0 15.0 15.0 15.0 15.0 15.0 15.0 15.0 15.0 15.0 15.0 15.0 15.0 15.0 15.0 15.0 15.0 15.0 15.0 15.0 15.0
15.0 15.0 15.0 15.0 15.0 15.0 15.0 15.0 15.0 15.0 15.0 15.0 15.0 15.0 15.0 15.0 15.0 15.0 15.0 15.0 15.0 15.0 15.0 15.0 15.0 13.8 9.5 15.0 15.0 15.0 15.0 15.0 15.0 15.0 15.0 15.0 15.0 15.0 15.0 15.0 15.0 15.0 15.0 6.7 15.0
15.0 15.0 15.0 15.0 15.0 15.0 15.0 15.0 15.0 15.0 15.0 15.0 15.0 15.0 15.0 15.0 15.0 15.0 15.0 15.0 15.0 15.0 15.0 15.0 15.0 15.0 14.7 15.0 15.0 15.0 15.0 15.0 15.0 15.0 15.0 15.0 15.0 15.0 15.0 15.0 15.0 15.0 15.0 15.0 15.0
15.0 15.0 15.0 15.0 15.0 15.0 15.0 15.0 15.0 15.0 15.0 15.0 15.0 15.0 15.0 15.0 15.0 15.0 15.0 15.0 15.0 15.0 15.0 15.0 15.0 12.5 15.0 2.0 15.0 15.0 15.0 15.0 15.0 15.0 15.0 15.0 15.0 15.0 15.0 15.0 15.0 15.0 15.0 15.0 15.0
15.0 15.0 15.0 15.0 15.0 15.0 15.0 15.0 15.0 15.0 15.0 15.0 15.0 15.0 15.0 15.0 15.0 15.0 15.0 15.0 15.0 15.0 15.0 15.0 15.0 15.0 15.0 15.0 15.0 15.0 15.0 15.0 15.0 15.0 15.0 15.0 15.0 15.0 15.0 15.0 15.0 15.0 15.0 15.0 15.0
15.0 15.0 15.0 15.0 15.0 15.0 15.0 15.0 15.0 15.0 15.0 15.0 15.0 15.0 15.0 0.4 15.0 15.0 15.0 15.0 15.0 15.0 15.0 15.0 15.0 15.0 15.0 15.0 15.0 15.0 15.0 15.0 15.0 15.0 15.0 15.0 15.0 15.0 15.0 15.0 15.0 15.0 15.0 15.0 15.0
15.0 15.0 15.0 15.0 15.0 15.0 15.0 15.0 15.0 15.0 15.0 15.0 15.0 15.0 15.0 14.1 15.0 15.0 15.0 15.0 15.0 15.0 15.0 15.0 15.0 15.0 15.0 15.0 15.0 15.0 15.0 15.0 15.0 15.0 15.0 15.0 15.0 15.0 15.0 15.0 15.0 15.0 15.0 15.0 15.0
15.0 15.0 15.0 15.0 15.0 15.0 15.0 15.0 15.0 15.0 15.0 15.0 15.0 15.0 14.0 15.0 15.0 15.0 15.0 15.0 15.0 15.0 15.0 15.0 15.0 15.0 15.0 15.0 15.0 15.0 15.0 15.0 15.0 15.0 15.0 15.0 15.0 15.0 15.0 15.0 15.0 15.0 15.0 15.0 15.0
15.0 15.0 15.0 15.0 15.0 15.0 15.0 15.0 15.0 15.0 15.0 14.5 12.1 10.1 1.6 15.0 15.0 15.0 15.0 15.0 15.0 15.0 15.0 15.0 15.0 15.0 15.0 15.0 15.0 15.0 8.8 15.0 15.0 15.0 15.0 15.0 15.0 15.0 15.0 15.0 15.0 15.0 15.0 15.0 15.0
15.0 15.0 15.0 15.0 15.0 15.0 15.0 15.0 15.0 15.0 15.0 9.9 15.0 0.2 15.0 15.0 15.0 15.0 15.0 15.0 15.0 11.6 12.0 6.3 10.9 0.7 15.0 15.0 7.4 15.0 15.0 15.0 15.0 15.0 15.0 15.0 15.0 15.0 15.0 15.0 15.0 15.0 15.0 15.0 15.0
15.0 15.0 15.0 15.0 15.0 15.0 15.0 15.0 15.0 15.0 15.0 15.0 15.0 14.9 15.0 15.0 15.0 15.0 15.0 15.0 15.0 15.0 15.0 15.0 3.1 0.1 10.8 15.0 15.0 15.0 15.0 15.0 15.0 15.0 15.0 15.0 15.0 15.0 15.0 15.0 15.0 15.0 15.0 15.0 15.0
15.0 15.0 15.0 15.0 15.0 15.0 15.0 15.0 15.0 15.0 0.5 15.0 15.0 15.0 15.0 15.0 15.0 15.0 15.0 15.0 15.0 11.4 15.0 15.0 1.0 15.0 15.0 14.3 14.2 2.5 1.5 14.2 15.0 15.0 15.0 15.0 15.0 15.0 15.0 15.0 15.0 15.0 15.0 15.0 15.0
15.0 15.0 15.0 15.0 15.0 15.0 15.0 15.0 15.0 15.0 0.4 15.0 15.0 15.0 15.0 15.0 15.0 15.0 15.0 15.0 15.0 15.0 11.2 10.5 14.4 15.0 15.0 15.0 15.0 7.7 8.0 14.9 15.0 15.0 15.0 15.0 15.0 15.0 15.0 15.0 15.0 15.0 15.0 15.0 15.0
15.0 15.0 15.0 15.0 15.0 15.0 15.0 15.0 15.0 15.0 4.6 9.0 3.0 15.0 15.0 15.0 15.0 15.0 15.0 15.0 13.6 15.0 15.0 12.6 15.0 15.0 15.0 15.0 15.0 14.8 15.0 15.0 15.0 4.0 0.2 15.0 5.9 15.0 15.0 15.0 15.0 15.0 15.0 15.0 15.0
15.0 15.0 15.0 15.0 15.0 15.0 15.0 15.0 15.0 9.1 13.6 14.3 15.0 15.0 15.0 1.2 7.0 14.9 15.0 15.0 6.7 14.2 15.0 15.0 15.0 15.0 15.0 15.0 15.0 10.5 15.0 15.0 15.0 11.1 13.1 14.6 15.0 15.0 15.0 15.0 15.0 15.0 15.0 15.0 14.6
15.0 15.0 15.0 15.0 15.0 15.0 15.0 15.0 15.0 3.3 0.3 10.2 15.0 15.0 15.0 15.0 3.3 4.2 15.0 14.8 15.0 3.9 2.8 5.0 13.2 15.0 13.4 7.5 6.7 13.0 15.0 10.6 12.5 1.6 0.1 15.0 15.0 15.0 15.0 10.6 12.0 15.0 15.0 15.0 0.2
15.0 15.0 15.0 15.0 15.0 15.0 15.0 15.0 15.0 3.3 12.3 15.0 15.0 15.0 15.0 15.0 15.0 12.4 0.1 0.2 0.1 0.2 0.1 12.9 9.6 6.5 15.0 14.1 5.0 3.0 0.2 0.1 0.1 0.1 2.4 15.0 3.2 15.0 13.1 7.0 14.6 13.3 13.5 14.7 15.0
15.0 15.0 15.0 15.0 15.0 15.0 15.0 15.0 14.7 13.3 15.0 15.0 15.0 15.0 15.0 15.0 15.0 15.0 13.6 0.4 1.2 0.1 0.1 0.2 1.3 4.3 4.1 0.6 2.3 13.2 1.6 2.7 0.3 0.2 15.0 15.0 0.4 15.0 1.8 3.7 6.4 15.0 15.0 15.0 12.4
15.0 15.0 15.0 15.0 15.0 15.0 15.0 15.0 6.8 4.6 15.0 0.9 13.3 15.0 15.0 15.0 15.0 15.0 6.2 2.1 2.1 8.5 0.1 0.1 0.1 2.2 15.0 15.0 7.9 4.4 0.1 9.6 0.4 13.4 11.3 4.1 15.0 5.4 1.5 0.9 1.6 14.3 15.0 1.6 2.1
15.0 15.0 15.0 15.0 15.0 15.0 15.0 15.0 15.0 15.0 15.0 14.9 1.3 0.2 0.6 15.0 15.0 15.0 15.0 15.0 15.0 15.0 15.0 0.6 1.4 0.2 6.8 15.0 15.0 11.1 15.0 0.5 0.1 0.1 0.2 2.4 11.9 15.0 0.7 0.6 0.3 0.4 4.0 2.7 0.5
15.0 15.0 15.0 15.0 15.0 15.0 5.9 11.6 15.0 15.0 15.0 15.0 5.4 9.2 11.2 0.2 15.0 15.0 10.9 15.0 15.0 15.0 15.0 15.0 7.7 12.3 14.5 0.4 0.3 0.1 0.1 0.1 0.4 0.1 12.6 4.6 13.7 2.1 5.5 4.4 0.5 0.3 1.9 14.8 11.8
15.0 15.0 15.0 15.0 15.0 15.0 15.0 15.0 15.0 15.0 15.0 15.0 15.0 14.2 14.1 13.9 1.4 15.0 3.9 15.0 15.0 15.0 15.0 14.9 8.4 15.0 0.8 0.1 0.1 0.2 0.1 0.1 0.2 1.7 0.4 0.1 3.5 0.5 14.6 1.8 1.3 0.2 0.8 14.6 15.0
15.0 3.5 15.0 15.0 0.7 9.7 15.0 15.0 15.0 15.0 15.0 15.0 14.9 15.0 15.0 6.7 2.0 0.1 0.2 15.0 15.0 15.0 15.0 15.0 15.0 15.0 3.6 0.1 12.9 0.7 0.1 0.1 0.2 12.9 6.1 14.3 4.9 0.5 0.3 0.2 0.6 0.3 0.4 0.2 0.1
15.0 11.8 15.0 15.0 15.0 8.5 3.0 15.0 13.9 15.0 15.0 15.0 7.7 15.0 4.7 12.5 7.9 0.5 0.1 9.4 15.0 15.0 15.0 15.0 11.6 15.0 14.7 10.6 7.6 0.3 0.5 0.1 0.1 1.6 3.2 12.1 0.6 0.1 0.1 0.2 0.1 0.1 0.1 0.1 0.1
15.0 15.0 5.8 5.9 7.7 7.7 14.1 15.0 11.9 0.3 15.0 7.1 15.0 13.8 0.1 0.4 1.6 0.1 0.1 3.3 15.0 15.0 15.0 15.0 15.0 13.7 15.0 15.0 15.0 15.0 10.5 0.2 0.1 1.5 14.6 4.0 15.0 1.0 0.8 0.1 0.1 0.1 0.1 0.1 0.6
15.0 10.6 8.2 14.1 15.0 8.0 14.9 14.8 5.0 7.1 2.5 1.2 0.8 3.9 2.6 0.4 0.1 0.1 0.1 0.3 0.5 14.8 8.7 15.0 15.0 15.0 15.0 15.0 15.0 15.0 15.0 12.2 0.6 15.0 12.5 9.7 0.2 1.1 0.1 0.1 0.1 0.1 0.1 2.1 15.0
15.0 13.5 0.5 14.8 15.0 5.5 0.4 1.9 12.4 15.0 14.3 4.5 0.3 0.5 3.6 3.2 0.3 2.6 0.5 0.7 0.7 0.4 2.4 11.5 2.8 14.6 15.0 15.0 15.0 12.8 15.0 15.0 15.0 15.0 15.0 15.0 12.7 0.1 0.1 0.1 0.1 0.1 15.0 15.0 15.0